Location: Colebrook
(42.0017°N, 73.0973°W)
Time: 14:33:26
(UTC-05:00)

Vanguard 2 - Pass Details

Date: 27 October 2021
Orbit: 554 x 2936 km, 32.9° (Epoch: 04 December)

Event Time Altitude Azimuth Distance (km) Brightness Sun altitude
Exits shadow 04:41:59 43° 200° (SSW) 1,814 9.1 -29.7°
Maximum altitude 04:42:18 43° 195° (SSW) 1,784 9.1 -29.7°
Drops below altitude 10° 04:48:32 10° 125° (SE) 2,707 10.9 -28.5°
Sets 04:50:45 0° 118° (ESE) 3,428 11.6 -28.1°
